Hourly Data Report for August 14, 2021

KUGLUKTUK A
NUNAVUT
Current Station Operator: NAVCAN

67°49'00.000" N
115°08'38.000" W
22.60 m
2300903
71938
YCO

Download Data

Hourly Data (August 2021)
Hourly Data Report for August 14, 2021
TIME
LST
Temp Definition
°C
Dew Point Definition
°C
Rel Hum Definition
%
Precip. Amount Definition
mm

Wind Dir Definition
10's deg

Wind Spd Definition
km/h
Visibility Definition
km
Stn Press Definition
kPa
Hmdx Definition


Wind Chill Definition


Weather Definition


00:00 7.0 5.0 87   34 38 24.1 100.15     Rain
01:00 6.5 4.7 88   34 32 24.1 100.18     LegendNANA
02:00 6.1 4.2 88   35 23 24.1 100.22     Cloudy
03:00 5.5 4.3 92   34 25 12.9 100.23     Drizzle
04:00 5.7 4.1 90   33 23 16.1 100.28     LegendNANA
05:00 5.4 4.7 95   33 12 6.4 100.31     Drizzle, Fog
06:00 5.4 4.8 96   29 10 6.4 100.34     Drizzle, Fog
07:00 5.7 5.3 97   26 9 6.4 100.32     Drizzle
08:00 6.2 5.4 95   35 10 12.9 100.34     Drizzle
09:00 6.3 5.4 94   33 18 16.1 100.36     Drizzle
10:00 6.5 5.0 90   35 30 24.1 100.38     Drizzle
11:00 6.5 5.0 90   34 31 24.1 100.41     Drizzle
12:00 6.2 4.4 88   35 34 24.1 100.45     LegendNANA
13:00 6.6 4.6 87   34 24 19.3 100.51     Drizzle
14:00 6.5 3.9 83   33 29 24.1 100.56     Drizzle
15:00 6.5 3.8 83   34 23 24.1 100.60     Drizzle
16:00 6.7 4.3 84   31 12 19.3 100.62     Drizzle
17:00 7.3 3.7 77   34 15 24.1 100.64     Cloudy
18:00 6.2 3.0 80   34 24 24.1 100.69     LegendNANA
19:00 5.4 2.8 83   34 19 24.1 100.73     LegendNANA
20:00 4.8 2.2 84   35 16 24.1 100.75     Cloudy
21:00 4.5 2.2 85   34 13 24.1 100.76     LegendNANA
22:00 4.3 2.1 86   32 7 24.1 100.78     LegendNANA
23:00 4.0 1.9 86   36 2 24.1 100.79     Cloudy

Notes on Data Quality.

Legend

  • E = Estimated
  • M = Missing
  • NA = Not Available*
  • [empty] = Indicates an unobserved value
Date modified: